Weather History for Wright-Patt AFB, OH

Change the Weather History Date:

Friday, November 23, 2012

  Actual Average Record
Temperature  
Mean Temperature 43 °F -  
Max Temperature 56 °F 48 °F 71 °F (1999)
Min Temperature 30 °F 31 °F 15 °F (2008)
Degree Days  
Heating Degree Days 22    
Moisture  
Dew Point 33 °F    
Average Humidity 65    
Maximum Humidity 88    
Minimum Humidity 54    
Precipitation  
Precipitation 0.00 in - - ()
Sea Level Pressure  
Sea Level Pressure 30.01 in    
Wind  
Wind Speed 16 mph (WSW)    
Max Wind Speed 25 mph    
Max Gust Speed 36 mph    
Visibility 10 miles    
Events Rain    
Averages and records for this station are not official NWS values.
T = Trace of Precipitation, MM = Missing Value Source: NWS Daily Summary

Daily Weather History Graph

Daily Weather History Graph

Search for Another Location

Airport:

Trip Planner

Search our weather history database for the weather conditions in past years. The results will help you decide how hot, cold, wet, or windy it might be!

Date:

Astronomy

Nov. 23, 2012 Rise Set
Actual Time 7:30 AM EST 5:14 PM EST
Civil Twilight 7:00 AM EST 5:44 PM EST
Nautical Twilight 6:27 AM EST 6:17 PM EST
Astronomical Twilight 5:55 AM EST 6:49 PM EST
Moon 2:28 PM EST (11/23) 2:48 AM EST (11/23)
Length of Visible Light 10h 43m
Length of Day
9h 44m
Waxing Gibbous, 79% of the Moon is Illuminated
Nov 23
Waxing Gibbous
Nov 28
Full
Dec 6
Last Quarter
Dec 13
New
Dec 20
First Quarter

Hourly Weather History & Observations

Time (EST) Temp. Windchill Dew Point Humidity Pressure Visibility Wind Dir Wind Speed Gust Speed Precip Events Conditions
12:55 AM 53.6 °F - 40.6 °F 62% 29.97 in 10.0 mi SSW 12.7 mph - N/A   Mostly Cloudy
1:28 AM 53.6 °F - 41.0 °F 62% 29.95 in 10.0 mi SSW 15.0 mph - N/A Rain Light Rain
1:40 AM 53.6 °F - 41.0 °F 62% 29.95 in 10.0 mi SW 19.6 mph 24.2 mph N/A   Mostly Cloudy
1:55 AM 55.0 °F - 41.2 °F 60% 29.95 in 10.0 mi SSW 17.3 mph - 0.00 in   Mostly Cloudy
2:04 AM 55.4 °F - 41.0 °F 58% 29.94 in 10.0 mi SSW 15.0 mph - N/A   Overcast
2:41 AM 55.4 °F - 41.0 °F 58% 29.94 in 10.0 mi SSW 17.3 mph - N/A   Overcast
2:44 AM 55.4 °F - 41.0 °F 58% 29.94 in 10.0 mi SSW 20.7 mph - N/A   Overcast
2:55 AM 56.3 °F - 40.3 °F 55% 29.94 in 10.0 mi SSW 18.4 mph 24.2 mph N/A   Overcast
3:33 AM 55.4 °F - 39.2 °F 54% 29.92 in 10.0 mi SSW 16.1 mph - N/A   Overcast
3:47 AM 55.4 °F - 41.0 °F 58% 29.92 in 10.0 mi SSW 15.0 mph - N/A   Overcast
3:55 AM 55.8 °F - 40.6 °F 57% 29.92 in 10.0 mi SW 16.1 mph 24.2 mph N/A   Overcast
4:29 AM 55.4 °F - 42.8 °F 63% 29.92 in 10.0 mi SW 16.1 mph - N/A Rain Light Rain
4:55 AM 53.1 °F - 45.0 °F 74% 29.91 in 10.0 mi SW 16.1 mph - 0.00 in Rain Light Rain
5:10 AM 51.8 °F - 44.6 °F 76% 29.91 in 10.0 mi SW 12.7 mph - N/A   Light Drizzle
5:11 AM 51.8 °F - 44.6 °F 76% 29.91 in 10.0 mi SW 13.8 mph - N/A   Overcast
5:55 AM 52.2 °F - 47.3 °F 83% 29.91 in 10.0 mi SW 12.7 mph - 0.00 in Rain Light Rain
6:30 AM 51.8 °F - 48.2 °F 88% 29.92 in 10.0 mi SW 13.8 mph - N/A   Overcast
6:55 AM 51.8 °F - 47.8 °F 86% 29.93 in 10.0 mi WSW 13.8 mph - 0.00 in   Overcast
7:02 AM 51.8 °F - 46.4 °F 82% 29.93 in 10.0 mi West 12.7 mph - N/A   Overcast
7:55 AM 47.5 °F - 40.3 °F 76% 29.96 in 10.0 mi West 16.1 mph - N/A   Mostly Cloudy
8:10 AM 46.4 °F 39.8 °F 41.0 °F 81% 29.95 in 10.0 mi WSW 16.1 mph 21.9 mph N/A   Mostly Cloudy
8:55 AM 41.7 °F 37.3 °F 36.3 °F 81% 29.98 in 10.0 mi West 6.9 mph - N/A   Scattered Clouds
9:55 AM 42.4 °F 34.4 °F 33.8 °F 71% 29.99 in 10.0 mi West 17.3 mph - N/A   Scattered Clouds
10:55 AM 43.7 °F 36.0 °F 31.8 °F 63% 30.00 in 10.0 mi West 17.3 mph 26.5 mph N/A   Partly Cloudy
11:06 AM 44.6 °F 36.1 °F 32.0 °F 61% 30.00 in 10.0 mi West 21.9 mph 29.9 mph N/A   Mostly Cloudy
11:55 AM 43.3 °F 34.7 °F 29.8 °F 59% 29.99 in 10.0 mi West 20.7 mph 28.8 mph N/A   Mostly Cloudy
12:04 PM 44.6 °F 36.4 °F 30.2 °F 57% 29.99 in 10.0 mi WSW 20.7 mph 31.1 mph N/A   Overcast
12:09 PM 44.6 °F 37.4 °F 30.2 °F 57% 29.99 in 10.0 mi West 16.1 mph 29.9 mph N/A   Overcast
12:22 PM 42.8 °F 33.1 °F 28.4 °F 57% 29.98 in 10.0 mi WSW 25.3 mph 31.1 mph N/A   Overcast
12:55 PM 41.9 °F 33.1 °F 27.3 °F 56% 29.99 in 10.0 mi West 19.6 mph 35.7 mph N/A   Overcast
1:55 PM 39.7 °F 29.7 °F 26.1 °F 58% 29.99 in 10.0 mi West 21.9 mph 31.1 mph N/A   Overcast
2:55 PM 38.7 °F 28.0 °F 24.1 °F 56% 30.00 in 10.0 mi West 23.0 mph 32.2 mph N/A   Mostly Cloudy
3:41 PM 37.4 °F 26.1 °F 24.8 °F 60% 30.04 in 10.0 mi West 24.2 mph 33.4 mph N/A   Overcast
3:47 PM 37.4 °F 25.9 °F 24.8 °F 60% 30.04 in 10.0 mi West 25.3 mph 32.2 mph N/A   Overcast
3:55 PM 37.2 °F 25.9 °F 23.5 °F 58% 30.04 in 10.0 mi West 24.2 mph 35.7 mph N/A   Overcast
4:21 PM 35.6 °F 24.2 °F 24.8 °F 65% 30.06 in 10.0 mi West 21.9 mph 35.7 mph N/A   Overcast
4:55 PM 34.0 °F 23.8 °F 23.2 °F 65% 30.10 in 10.0 mi WNW 16.1 mph 26.5 mph N/A   Overcast
5:55 PM 32.9 °F 23.7 °F 21.2 °F 62% 30.13 in 10.0 mi WNW 12.7 mph - N/A   Overcast
6:55 PM 32.2 °F 21.4 °F 21.2 °F 64% 30.16 in 10.0 mi WNW 16.1 mph 20.7 mph N/A   Overcast
7:55 PM 31.1 °F 20.1 °F 19.6 °F 62% 30.17 in 10.0 mi West 16.1 mph 25.3 mph N/A   Overcast
8:55 PM 30.9 °F 21.2 °F 19.4 °F 62% 30.19 in 10.0 mi WNW 12.7 mph - N/A   Overcast
9:55 PM 30.6 °F 20.7 °F 18.3 °F 60% 30.19 in 10.0 mi West 12.7 mph - N/A   Overcast
10:42 PM 30.2 °F 21.9 °F 19.4 °F 64% 30.19 in 10.0 mi West 9.2 mph - N/A   Overcast
10:55 PM 30.4 °F 20.5 °F 18.3 °F 61% 30.18 in 10.0 mi West 12.7 mph - N/A   Overcast
11:26 PM 30.2 °F 21.3 °F 17.6 °F 60% 30.18 in 10.0 mi West 10.4 mph - N/A   Overcast
11:55 PM 30.4 °F 21.0 °F 18.7 °F 62% 30.17 in 10.0 mi WSW 11.5 mph - N/A   Overcast